| time (UTC) | temp F | wind direction | speed MPH | gust MPH | rain 1hr in | rain 24hr in | rain mn in | humidity % | barometer mb |
| 20260902011526 | 65 | 99 | 0.0 | 2.0 | 0.00 | 0.00 | 0.00 | 77 | 1007.1 |
| 20260902010026 | 65 | 99 | 0.0 | 2.0 | 0.00 | 0.00 | 0.00 | 77 | 1007.1 |
| 20260902004526 | 66 | 99 | 0.0 | 2.0 | 0.00 | 0.00 | 0.00 | 77 | 1006.9 |
| 20260902003025 | 66 | 101 | 0.0 | 4.0 | 0.00 | 0.00 | 0.00 | 76 | 1006.8 |
| 20260902001524 | 67 | 344 | 1.0 | 5.0 | 0.00 | 0.00 | 0.00 | 74 | 1006.8 |
| 20260902000024 | 67 | 75 | 1.0 | 3.0 | 0.00 | 0.00 | 0.00 | 71 | 1006.8 |
| 20260901234523 | 67 | 96 | 0.0 | 2.0 | 0.00 | 0.00 | 0.00 | 74 | 1007.1 |
| 20260901233029 | 67 | 71 | 0.0 | 3.0 | 0.00 | 0.00 | 0.00 | 73 | 1007.1 |
| 20260901231520 | 66 | 76 | 0.0 | 2.0 | 0.00 | 0.00 | 0.00 | 74 | 1007.2 |
| 20260901230019 | 66 | 82 | 0.0 | 3.0 | 0.00 | 0.00 | 0.00 | 74 | 1007.3 |
| 20260901224532 | 66 | 88 | 0.0 | 1.0 | 0.00 | 0.00 | 0.00 | 74 | 1007.3 |
| 20260901223016 | 66 | 121 | 1.0 | 3.0 | 0.00 | 0.00 | 0.00 | 75 | 1007.3 |
| 20260901221515 | 65 | 130 | 0.0 | 2.0 | 0.00 | 0.00 | 0.00 | 77 | 1007.4 |
| 20260901220015 | 65 | 130 | 0.0 | 2.0 | 0.00 | 0.00 | 0.00 | 78 | 1007.3 |
| 20260901214515 | 65 | 130 | 0.0 | 2.0 | 0.00 | 0.00 | 0.00 | 77 | 1007.3 |
| 20260901213016 | 66 | 144 | 1.0 | 3.0 | 0.00 | 0.00 | 0.00 | 75 | 1007.3 |
| 20260901211521 | 65 | 283 | 0.0 | 2.0 | 0.00 | 0.00 | 0.00 | 78 | 1007.5 |
| 20260901210010 | 64 | 161 | 0.0 | 2.0 | 0.00 | 0.00 | 0.00 | 79 | 1007.5 |
| 20260901204509 | 64 | 91 | 0.0 | 2.0 | 0.00 | 0.00 | 0.00 | 78 | 1007.5 |
| 20260901203009 | 65 | 92 | 0.0 | 3.0 | 0.00 | 0.00 | 0.00 | 76 | 1007.6 |
| 20260901201506 | 65 | 115 | 1.0 | 2.0 | 0.00 | 0.00 | 0.00 | 78 | 1007.6 |
| 20260901200005 | 64 | 195 | 0.0 | 2.0 | 0.00 | 0.00 | 0.00 | 80 | 1007.7 |
| 20260901194508 | 64 | 62 | 1.0 | 3.0 | 0.00 | 0.00 | 0.00 | 81 | 1007.8 |
| 20260901193110 | 63 | 229 | 0.0 | 3.0 | 0.00 | 0.00 | 0.00 | 83 | 1007.9 |
| 20260901191601 | 62 | 75 | 1.0 | 3.0 | 0.00 | 0.00 | 0.00 | 86 | 1008.0 |
| 20260901190112 | 61 | 173 | 0.0 | 3.0 | 0.00 | 0.00 | 0.00 | 90 | 1008.1 |
| 20260901184555 | 60 | 119 | 0.0 | 4.0 | 0.00 | 0.00 | 0.00 | 90 | 1008.5 |
| 20260901183055 | 61 | 109 | 1.0 | 3.0 | 0.00 | 0.00 | 0.00 | 86 | 1008.2 |
| 20260901181559 | 61 | 171 | 0.0 | 3.0 | 0.00 | 0.00 | 0.00 | 86 | 1008.1 |
| 20260901180053 | 61 | 186 | 0.0 | 4.0 | 0.00 | 0.00 | 0.00 | 87 | 1008.3 |
| 20260901174551 | 61 | 100 | 0.0 | 2.0 | 0.00 | 0.00 | 0.00 | 88 | 1008.3 |
| 20260901173059 | 61 | 100 | 0.0 | 3.0 | 0.00 | 0.00 | 0.00 | 86 | 1008.0 |
| 20260901171559 | 61 | 71 | 1.0 | 2.0 | 0.00 | 0.00 | 0.00 | 87 | 1008.1 |
| 20260901170049 | 60 | 115 | 0.0 | 2.0 | 0.00 | 0.00 | 0.00 | 89 | 1008.0 |
| 20260901164552 | 60 | 115 | 0.0 | 3.0 | 0.00 | 0.00 | 0.00 | 90 | 1007.9 |
| 20260901163043 | 60 | 318 | 0.0 | 1.0 | 0.00 | 0.00 | 0.00 | 90 | 1007.9 |
| 20260901161544 | 59 | 318 | 0.0 | 1.0 | 0.00 | 0.00 | 0.00 | 91 | 1007.9 |
| 20260901160039 | 59 | 317 | 0.0 | 1.0 | 0.00 | 0.00 | 0.00 | 92 | 1008.1 |
| 20260901154538 | 58 | 317 | 0.0 | 2.0 | 0.00 | 0.00 | 0.00 | 92 | 1008.1 |
| 20260901153036 | 58 | 331 | 0.0 | 1.0 | 0.00 | 0.00 | 0.00 | 93 | 1008.1 |
| 20260901151541 | 58 | 331 | 0.0 | 1.0 | 0.00 | 0.00 | 0.00 | 93 | 1008.2 |
| 20260901150032 | 58 | 331 | 0.0 | 1.0 | 0.00 | 0.00 | 0.00 | 94 | 1008.1 |
| 20260901144529 | 58 | 331 | 0.0 | 1.0 | 0.00 | 0.00 | 0.00 | 94 | 1007.9 |
| 20260901143029 | 58 | 331 | 0.0 | 1.0 | 0.00 | 0.00 | 0.00 | 94 | 1007.9 |
| 20260901141524 | 58 | 331 | 0.0 | 0.0 | 0.00 | 0.00 | 0.00 | 93 | 1007.8 |
| 20260901140024 | 58 | 331 | 0.0 | 1.0 | 0.00 | 0.00 | 0.00 | 93 | 1007.7 |
| 20260901134531 | 58 | 331 | 0.0 | 0.0 | 0.00 | 0.00 | 0.00 | 92 | 1007.6 |
| 20260901133025 | 58 | 331 | 0.0 | 1.0 | 0.00 | 0.00 | 0.00 | 92 | 1007.6 |
| 20260901131517 | 59 | 339 | 0.0 | 0.0 | 0.00 | 0.00 | 0.00 | 91 | 1007.6 |
| 20260901130016 | 59 | 339 | 0.0 | 1.0 | 0.00 | 0.00 | 0.00 | 90 | 1007.4 |
| 20260901124515 | 59 | 339 | 0.0 | 0.0 | 0.00 | 0.00 | 0.00 | 90 | 1007.2 |
| 20260901123024 | 59 | 339 | 0.0 | 0.0 | 0.00 | 0.00 | 0.00 | 89 | 1007.1 |
| 20260901121513 | 59 | 339 | 0.0 | 0.0 | 0.00 | 0.00 | 0.00 | 88 | 1007.3 |
| 20260901120011 | 59 | 339 | 0.0 | 1.0 | 0.00 | 0.00 | 0.00 | 89 | 1007.3 |
| 20260901114510 | 59 | 339 | 0.0 | 1.0 | 0.00 | 0.00 | 0.00 | 89 | 1007.2 |
| 20260901113009 | 59 | 339 | 0.0 | 0.0 | 0.00 | 0.00 | 0.00 | 89 | 1007.1 |
| 20260901111508 | 59 | 339 | 0.0 | 1.0 | 0.00 | 0.00 | 0.00 | 89 | 1007.1 |
| 20260901110007 | 59 | 339 | 0.0 | 1.0 | 0.00 | 0.00 | 0.00 | 89 | 1007.0 |
| 20260901104506 | 58 | 339 | 0.0 | 1.0 | 0.00 | 0.00 | 0.00 | 90 | 1007.0 |
| 20260901103004 | 58 | 339 | 0.0 | 1.0 | 0.00 | 0.00 | 0.00 | 90 | 1006.9 |
| 20260901101506 | 58 | 339 | 0.0 | 1.0 | 0.00 | 0.00 | 0.00 | 89 | 1006.8 |
| 20260901100110 | 58 | 339 | 0.0 | 2.0 | 0.00 | 0.00 | 0.00 | 89 | 1006.7 |
| 20260901094559 | 59 | 334 | 0.0 | 2.0 | 0.00 | 0.00 | 0.00 | 88 | 1006.6 |
| 20260901093104 | 59 | 344 | 0.0 | 2.0 | 0.00 | 0.00 | 0.00 | 88 | 1006.6 |
| 20260901091602 | 60 | 345 | 0.0 | 3.0 | 0.00 | 0.00 | 0.00 | 88 | 1006.3 |
| 20260901090051 | 60 | 355 | 0.0 | 3.0 | 0.00 | 0.00 | 0.00 | 88 | 1006.2 |
| 20260901084549 | 60 | 19 | 0.0 | 2.0 | 0.00 | 0.00 | 0.00 | 87 | 1006.2 |
| 20260901083048 | 60 | 120 | 0.0 | 1.0 | 0.00 | 0.00 | 0.00 | 87 | 1006.3 |
| 20260901081544 | 61 | 121 | 0.0 | 1.0 | 0.00 | 0.00 | 0.00 | 85 | 1006.3 |
| 20260901080041 | 61 | 61 | 0.0 | 4.0 | 0.00 | 0.00 | 0.00 | 85 | 1006.2 |
| 20260901074539 | 62 | 285 | 1.0 | 4.0 | 0.00 | 0.00 | 0.00 | 84 | 1006.1 |
| 20260901073045 | 62 | 46 | 0.0 | 2.0 | 0.00 | 0.00 | 0.00 | 83 | 1005.9 |
| 20260901071534 | 63 | 341 | 0.0 | 1.0 | 0.00 | 0.00 | 0.00 | 82 | 1005.7 |
| 20260901070030 | 64 | 315 | 1.0 | 3.0 | 0.00 | 0.00 | 0.00 | 80 | 1005.3 |
| 20260901064536 | 64 | 115 | 0.0 | 4.0 | 0.00 | 0.00 | 0.00 | 79 | 1005.1 |
| 20260901063034 | 64 | 317 | 1.0 | 3.0 | 0.00 | 0.00 | 0.00 | 79 | 1004.9 |
| 20260901061529 | 65 | 309 | 0.0 | 4.0 | 0.00 | 0.00 | 0.00 | 77 | 1004.9 |
| 20260901060029 | 66 | 290 | 1.0 | 4.0 | 0.00 | 0.00 | 0.00 | 75 | 1004.8 |
| 20260901054528 | 66 | 286 | 0.0 | 6.0 | 0.00 | 0.00 | 0.00 | 74 | 1004.7 |
| 20260901053027 | 66 | 323 | 0.0 | 3.0 | 0.00 | 0.00 | 0.00 | 74 | 1004.7 |
| 20260901051528 | 67 | 44 | 0.0 | 2.0 | 0.00 | 0.00 | 0.00 | 72 | 1004.6 |
| 20260901050026 | 68 | 285 | 1.0 | 5.0 | 0.00 | 0.00 | 0.00 | 70 | 1004.4 |
| 20260901044525 | 69 | 269 | 1.0 | 3.0 | 0.00 | 0.00 | 0.00 | 68 | 1004.2 |
| 20260901043025 | 70 | 292 | 1.0 | 3.0 | 0.00 | 0.00 | 0.00 | 66 | 1004.1 |
| 20260901041526 | 70 | 284 | 1.0 | 3.0 | 0.00 | 0.00 | 0.00 | 65 | 1004.1 |
| 20260901040031 | 71 | 264 | 1.0 | 3.0 | 0.00 | 0.00 | 0.00 | 63 | 1004.1 |
| 20260901034522 | 71 | 261 | 1.0 | 2.0 | 0.00 | 0.00 | 0.00 | 62 | 1004.0 |
| 20260901033023 | 72 | 223 | 0.0 | 2.0 | 0.00 | 0.00 | 0.00 | 62 | 1003.5 |
| 20260901031521 | 72 | 348 | 0.0 | 1.0 | 0.00 | 0.00 | 0.00 | 61 | 1003.3 |
| 20260901030021 | 73 | 348 | 0.0 | 2.0 | 0.00 | 0.00 | 0.00 | 61 | 1003.4 |
| 20260901024527 | 73 | 355 | 0.0 | 1.0 | 0.00 | 0.00 | 0.00 | 59 | 1003.1 |
| 20260901023022 | 74 | 355 | 0.0 | 1.0 | 0.00 | 0.00 | 0.00 | 60 | 1003.1 |
| 20260901021520 | 75 | 355 | 0.0 | 1.0 | 0.00 | 0.00 | 0.00 | 63 | 1003.0 |
| 20260901020019 | 76 | 355 | 0.0 | 1.0 | 0.00 | 0.00 | 0.00 | 64 | 1003.1 |
| 20260901014519 | 77 | 355 | 0.0 | 1.0 | 0.00 | 0.00 | 0.00 | 60 | 1003.0 |
| 20260901013021 | 77 | 355 | 0.0 | 1.0 | 0.00 | 0.00 | 0.00 | 59 | 1003.0 |